WB7CYS Weather Reports


Display with metric or nautical units.
time (UTC)temp
F
wind
direction
speed
MPH
gust
MPH
rain 1hr
in
rain 24hr
in
rain mn
in
humidity
%
barometer
mb
20260903134512 0 0.0 0.0 0.00 0.19 0.01 1009.5
20260903133009 0 0.0 0.0 0.00 0.19 0.01 1009.5
20260903131503 0 0.0 0.0 0.00 0.19 0.01 1009.4
20260903130119 0 0.0 0.0 0.00 0.19 0.01 1009.2
20260903124556 0 0.0 0.0 0.00 0.19 0.01 1009.1
20260903123050 0 0.0 0.0 0.00 0.19 0.01 1008.9
20260903121544 0 0.0 0.0 0.00 0.19 0.01 1008.8
20260903120042 0 0.0 0.0 0.00 0.19 0.01 1008.6
20260903114537 0 0.0 0.0 0.00 0.19 0.01 1008.4
20260903113040 0 0.0 0.0 0.00 0.19 0.01 1008.5
20260903111527 0 0.0 0.0 0.00 0.19 0.01 1008.4
20260903110022 0 0.0 0.0 0.00 0.19 0.01 1008.2
20260903104519 0 0.0 0.0 0.00 0.19 0.01 1008.3
20260903103014 0 0.0 0.0 0.00 0.19 0.01 1008.4
20260903101511 0 0.0 0.0 0.00 0.19 0.01 1008.2
20260903100005 0 0.0 0.0 0.00 0.19 0.01 1008.5
20260903094609 0 0.0 0.0 0.00 0.19 0.01 1008.3
20260903093107 0 0.0 0.0 0.01 0.19 0.01 1008.4
20260903091554 54 108 0.0 0.0 0.01 0.19 0.01 83 1008.0
20260903090052 55 104 0.0 0.0 0.01 0.19 0.01 84 1007.9
20260903084550 55 103 0.0 0.0 0.01 0.19 0.01 80 1007.7
20260903083054 55 103 0.0 1.0 0.00 0.18 0.00 79 1007.6
20260903081549 55 89 3.0 5.0 0.00 0.18 0.00 83 1007.4
20260903080050 54 91 6.0 8.0 0.00 0.18 0.00 86 1007.3
20260903074543 55 107 1.0 2.0 0.00 0.18 0.00 80 1007.1
20260903073041 55 96 3.0 4.0 0.01 0.18 0.00 83 1007.1
20260903071541 55 85 0.0 3.0 0.06 0.18 0.00 82 1007.0
20260903070036 55 214 4.0 8.0 0.09 0.18 0.00 81 1007.1
20260903064540 54 78 2.0 6.0 0.11 0.18 0.18 87 1007.0
20260903063034 54 120 5.0 6.0 0.10 0.17 0.17 89 1007.3
20260903061532 54 228 3.0 11.0 0.06 0.12 0.12 86 1007.7
20260903060028 56 255 9.0 16.0 0.04 0.09 0.09 86 1007.6
20260903054525 57 274 15.0 19.0 0.04 0.07 0.07 84 1007.3
20260903053022 57 146 12.0 16.0 0.05 0.07 0.07 81 1006.6
20260903051518 57 142 8.0 11.0 0.05 0.06 0.06 81 1006.8
20260903050018 57 118 6.0 8.0 0.03 0.04 0.04 80 1007.0
20260903044520 58 109 4.0 9.0 0.02 0.03 0.03 79 1007.1
20260903043018 57 143 6.0 11.0 0.02 0.02 0.02 80 1007.1
20260903041516 57 161 6.0 9.0 0.01 0.01 0.01 80 1007.1
20260903040012 58 174 5.0 8.0 0.01 0.01 0.01 77 1007.1
20260903034512 59 224 0.0 4.0 0.01 0.01 0.01 75 1007.1
20260903033014 59 273 2.0 4.0 0.00 0.00 0.00 74 1007.0
20260903031510 60 204 1.0 5.0 0.00 0.00 0.00 72 1006.8
20260903030011 59 274 0.0 8.0 0.00 0.00 0.00 74 1006.6
20260903024508 60 242 7.0 14.0 0.00 0.00 0.00 70 1006.4
20260903023008 60 152 10.0 15.0 0.00 0.00 0.00 69 1006.2
20260903021509 60 138 11.0 17.0 0.00 0.00 0.00 71 1006.3
20260903020006 61 169 12.0 18.0 0.00 0.00 0.00 69 1006.2
20260903014504 61 177 8.0 13.0 0.00 0.00 0.00 69 1006.3
20260903013004 61 159 5.0 10.0 0.00 0.00 0.00 70 1006.3
20260903011503 62 153 10.0 14.0 0.00 0.00 0.00 67 1006.1
20260903010002 63 193 12.0 18.0 0.00 0.00 0.00 63 1005.9
20260903004501 64 192 7.0 11.0 0.00 0.00 0.00 64 1005.9
20260903003101 64 233 8.0 16.0 0.00 0.00 0.00 60 1005.7
20260903001559 67 248 16.0 22.0 0.00 0.00 0.00 53 1005.5
20260903000059 68 242 12.0 20.0 0.00 0.00 0.00 46 1005.2
20260902234606 68 257 17.0 27.0 0.00 0.00 0.00 45 1005.0
20260902233057 70 259 14.0 21.0 0.00 0.00 0.00 43 1004.8
20260902231600 70 281 21.0 31.0 0.00 0.00 0.00 41 1004.6
20260902230155 70 280 27.0 35.0 0.00 0.00 0.00 41 1004.2
20260902224553 71 242 15.0 32.0 0.00 0.00 0.00 39 1004.2
20260902223101 72 228 13.0 22.0 0.00 0.00 0.00 39 1004.0
20260902221551 73 239 17.0 30.0 0.00 0.00 0.00 35 1003.7
20260902220050 75 270 8.0 14.0 0.00 0.00 0.00 34 1003.3
20260902214549 75 271 0.0 5.0 0.00 0.00 0.00 34 1003.0
20260902213045 75 356 3.0 7.0 0.00 0.00 0.00 36 1003.1
20260902211542 74 72 2.0 6.0 0.00 0.00 0.00 37 1003.5
20260902210039 73 57 4.0 7.0 0.00 0.00 0.00 39 1003.6
20260902204538 73 85 3.0 7.0 0.00 0.00 0.00 39 1003.7
20260902203035 73 86 1.0 7.0 0.00 0.00 0.00 39 1003.9
20260902201532 72 32 3.0 9.0 0.00 0.00 0.00 40 1004.1
20260902200033 71 341 1.0 6.0 0.00 0.00 0.00 41 1004.4
20260902194531 71 34 3.0 8.0 0.00 0.00 0.00 41 1004.4
20260902193030 72 326 8.0 11.0 0.00 0.00 0.00 41 1004.6
20260902191527 72 46 3.0 7.0 0.00 0.00 0.00 40 1004.8
20260902190027 72 198 2.0 6.0 0.00 0.00 0.00 41 1005.1
20260902184521 70 205 2.0 8.0 0.00 0.00 0.00 43 1005.4
20260902183021 69 84 1.0 9.0 0.00 0.00 0.00 45 1005.5
20260902181515 68 351 6.0 12.0 0.00 0.00 0.00 46 1005.7
20260902180013 68 281 3.0 10.0 0.00 0.00 0.00 46 1005.8
20260902174509 67 70 1.0 4.0 0.00 0.00 0.00 48 1006.0
20260902173009 68 285 3.0 6.0 0.00 0.00 0.00 48 1006.2
20260902171505 67 278 3.0 6.0 0.00 0.00 0.00 50 1006.3
20260902170003 65 215 3.0 6.0 0.00 0.00 0.00 52 1006.5
20260902164601 64 210 3.0 8.0 0.00 0.00 0.00 53 1006.5
20260902163059 64 247 4.0 7.0 0.00 0.00 0.00 54 1006.4
20260902161600 64 266 1.0 4.0 0.00 0.00 0.00 54 1006.4
20260902160115 64 218 2.0 4.0 0.00 0.00 0.00 55 1006.7
20260902154559 62 239 1.0 4.0 0.00 0.00 0.00 57 1006.9
20260902153057 60 87 2.0 3.0 0.00 0.00 0.00 63 1007.0
20260902151600 57 86 3.0 4.0 0.00 0.00 0.00 69 1007.2
20260902150052 57 284 0.0 0.0 0.00 0.00 0.00 66 1007.4
20260902144551 57 284 0.0 0.0 0.00 0.00 0.00 68 1007.5
20260902143050 57 284 0.0 2.0 0.00 0.00 0.00 69 1007.5
20260902141553 57 283 0.0 1.0 0.00 0.00 0.00 69 1007.3
20260902140046 0 0.0 0.0 0.00 0.00 0.00 1007.3